When you browse on this site, cookies collect data to enhance your experience and personalize the content and advertising you see.
Visit our Privacy Policy to learn more. By continuing to use the site, you agree to this use of cookies and data.
  • în România
  • Lista ţărilor
  • Pe 7 zile
  • Temperatura apei
  • Hartă satelitară
  • Meteo pe hartă
  • Widget-uri
  • user-avatar
    Intrare

    Meteo pe oră la Barcelona

    Astăzi, 21 Aprilie, Duminică

    Timp Temperatura Precipitaţii Vânt Presiune Umiditate
    00:00 +29°C° 0 mm 4 m/s 759 mmHg 74%
    01:00 +28°C° 0 mm 4 m/s 759 mmHg 75%
    02:00 +28°C° 0 mm 3 m/s 759 mmHg 77%
    03:00 +28°C° 0 mm 3 m/s 759 mmHg 78%
    04:00 +27°C° 0 mm 2 m/s 759 mmHg 79%
    05:00 +27°C° 0 mm 2 m/s 759 mmHg 80%
    06:00 +29°C° 0 mm 2 m/s 759 mmHg 71%
    07:00 +30°C° 0 mm 1 m/s 759 mmHg 63%
    08:00 +32°C° 0 mm 1 m/s 760 mmHg 54%
    09:00 +35°C° 0 mm 2 m/s 760 mmHg 47%
    10:00 +38°C° 0 mm 2 m/s 760 mmHg 39%
    11:00 +40°C° 0 mm 3 m/s 760 mmHg 32%
    12:00 +40°C° 0 mm 4 m/s 759 mmHg 35%
    13:00 +40°C° 0 mm 5 m/s 758 mmHg 37%
    14:00 +39°C° 0 mm 5 m/s 757 mmHg 40%
    15:00 +38°C° 0 mm 6 m/s 757 mmHg 44%
    16:00 +36°C° 0 mm 6 m/s 756 mmHg 49%
    17:00 +35°C° 0 mm 6 m/s 756 mmHg 53%
    18:00 +33°C° 0 mm 6 m/s 756 mmHg 59%
    19:00 +32°C° 0 mm 6 m/s 757 mmHg 64%
    20:00 +30°C° 0 mm 6 m/s 757 mmHg 69%
    21:00 +30°C° 0 mm 6 m/s 758 mmHg 70%
    22:00 +29°C° 0 mm 5 m/s 758 mmHg 71%
    23:00 +29°C° 0 mm 5 m/s 759 mmHg 73%

    Mâine, 22 Aprilie, Luni

    Timp Temperatura Precipitaţii Vânt Presiune Umiditate
    00:00 +29°C° 0.1 mm 4 m/s 758 mmHg 74%
    01:00 +28°C° 0.1 mm 4 m/s 758 mmHg 75%
    02:00 +28°C° 0.1 mm 4 m/s 758 mmHg 76%
    03:00 +28°C° 0.1 mm 3 m/s 758 mmHg 77%
    04:00 +28°C° 0.1 mm 3 m/s 757 mmHg 78%
    05:00 +27°C° 0.1 mm 2 m/s 757 mmHg 79%
    06:00 +29°C° 0 mm 2 m/s 758 mmHg 71%
    07:00 +31°C° 0 mm 2 m/s 758 mmHg 64%
    08:00 +32°C° 0 mm 2 m/s 758 mmHg 56%
    09:00 +35°C° 0 mm 2 m/s 759 mmHg 50%
    10:00 +38°C° 0 mm 3 m/s 759 mmHg 44%
    11:00 +41°C° 0 mm 4 m/s 759 mmHg 38%
    12:00 +40°C° 0 mm 4 m/s 758 mmHg 40%
    13:00 +39°C° 0 mm 5 m/s 757 mmHg 43%
    14:00 +37°C° 0 mm 5 m/s 756 mmHg 45%
    15:00 +36°C° 0 mm 6 m/s 755 mmHg 48%
    16:00 +35°C° 0 mm 6 m/s 755 mmHg 51%
    17:00 +35°C° 0 mm 6 m/s 755 mmHg 54%
    18:00 +33°C° 0 mm 6 m/s 755 mmHg 59%
    19:00 +32°C° 0 mm 6 m/s 756 mmHg 65%
    20:00 +30°C° 0 mm 6 m/s 756 mmHg 71%
    21:00 +29°C° 0 mm 5 m/s 757 mmHg 73%
    22:00 +29°C° 0 mm 5 m/s 757 mmHg 75%
    23:00 +29°C° 0 mm 4 m/s 758 mmHg 77%

    Poimâine, 23 Aprilie, Marţi

    Timp Temperatura Precipitaţii Vânt Presiune Umiditate
    00:00 +28°C° 0.1 mm 4 m/s 758 mmHg 78%
    01:00 +28°C° 0.1 mm 4 m/s 757 mmHg 79%
    02:00 +28°C° 0.1 mm 4 m/s 757 mmHg 81%
    03:00 +28°C° 0.2 mm 3 m/s 757 mmHg 81%
    04:00 +27°C° 0.2 mm 3 m/s 757 mmHg 81%
    05:00 +27°C° 0.2 mm 2 m/s 757 mmHg 81%
    06:00 +28°C° 0 mm 2 m/s 757 mmHg 75%
    07:00 +30°C° 0 mm 2 m/s 758 mmHg 69%
    08:00 +31°C° 0 mm 1 m/s 758 mmHg 63%
    09:00 +34°C° 0 mm 2 m/s 758 mmHg 55%
    10:00 +36°C° 0 mm 2 m/s 758 mmHg 48%
    11:00 +39°C° 0 mm 2 m/s 758 mmHg 40%
    12:00 +38°C° 0 mm 3 m/s 757 mmHg 42%
    13:00 +37°C° 0 mm 4 m/s 757 mmHg 45%
    14:00 +37°C° 0 mm 4 m/s 756 mmHg 47%
    15:00 +36°C° 0 mm 4 m/s 755 mmHg 51%
    16:00 +35°C° 0 mm 4 m/s 755 mmHg 55%
    17:00 +34°C° 0 mm 4 m/s 755 mmHg 59%
    18:00 +33°C° 0 mm 4 m/s 755 mmHg 64%
    19:00 +32°C° 0 mm 4 m/s 756 mmHg 69%
    20:00 +30°C° 0 mm 4 m/s 757 mmHg 75%
    21:00 +29°C° 0 mm 4 m/s 757 mmHg 75%
    22:00 +29°C° 0 mm 5 m/s 758 mmHg 76%
    23:00 +29°C° 0 mm 5 m/s 758 mmHg 77%

    24 Aprilie, Miercuri

    Timp Temperatura Precipitaţii Vânt Presiune Umiditate
    00:00 +29°C° 0.2 mm 4 m/s 758 mmHg 78%
    01:00 +28°C° 0.2 mm 4 m/s 757 mmHg 79%
    02:00 +28°C° 0.2 mm 3 m/s 757 mmHg 80%
    03:00 +28°C° 0.5 mm 3 m/s 757 mmHg 79%
    04:00 +28°C° 0.5 mm 2 m/s 757 mmHg 78%
    05:00 +28°C° 0.5 mm 1 m/s 757 mmHg 77%
    06:00 +29°C° 0 mm 1 m/s 758 mmHg 72%
    07:00 +30°C° 0 mm 1 m/s 758 mmHg 67%
    08:00 +31°C° 0 mm 1 m/s 759 mmHg 61%
    09:00 +35°C° 0 mm 1 m/s 759 mmHg 52%
    10:00 +39°C° 0 mm 2 m/s 759 mmHg 43%
    11:00 +42°C° 0 mm 2 m/s 759 mmHg 34%
    12:00 +39°C° 0.3 mm 2 m/s 758 mmHg 41%
    13:00 +37°C° 0.3 mm 3 m/s 757 mmHg 47%
    14:00 +35°C° 0.3 mm 4 m/s 757 mmHg 54%
    15:00 +34°C° 0.2 mm 3 m/s 756 mmHg 57%
    16:00 +33°C° 0.2 mm 3 m/s 756 mmHg 61%
    17:00 +33°C° 0.2 mm 3 m/s 756 mmHg 64%
    18:00 +31°C° 0 mm 3 m/s 757 mmHg 66%
    19:00 +30°C° 0 mm 2 m/s 757 mmHg 68%
    20:00 +29°C° 0 mm 2 m/s 758 mmHg 70%
    21:00 +29°C° 0.1 mm 3 m/s 758 mmHg 72%
    22:00 +29°C° 0.1 mm 3 m/s 759 mmHg 73%
    23:00 +29°C° 0.1 mm 3 m/s 759 mmHg 74%

    25 Aprilie, Joi

    Timp Temperatura Precipitaţii Vânt Presiune Umiditate
    00:00 +29°C° 0.1 mm 3 m/s 759 mmHg 74%
    01:00 +29°C° 0.1 mm 2 m/s 758 mmHg 74%
    02:00 +29°C° 0.1 mm 2 m/s 758 mmHg 73%
    03:00 +29°C° 0 mm 2 m/s 758 mmHg 73%
    04:00 +29°C° 0 mm 1 m/s 758 mmHg 72%
    05:00 +29°C° 0 mm 1 m/s 758 mmHg 71%
    06:00 +29°C° 0 mm 1 m/s 758 mmHg 69%
    07:00 +27°C° 0 mm 0 m/s 759 mmHg 67%
    08:00 +28°C° 0 mm 0 m/s 759 mmHg 64%
    09:00 +31°C° 0 mm 1 m/s 759 mmHg 60%
    10:00 +32°C° 0 mm 1 m/s 759 mmHg 57%
    11:00 +32°C° 0 mm 1 m/s 759 mmHg 53%
    12:00 +32°C° 0 mm 2 m/s 759 mmHg 54%
    13:00 +34°C° 0 mm 2 m/s 758 mmHg 55%
    14:00 +34°C° 0 mm 3 m/s 758 mmHg 56%
    15:00 +32°C° 0.2 mm 2 m/s 758 mmHg 60%
    16:00 +31°C° 0.2 mm 2 m/s 757 mmHg 64%
    17:00 +30°C° 0.2 mm 2 m/s 757 mmHg 68%
    18:00 +30°C° 0.1 mm 2 m/s 758 mmHg 72%
    19:00 +29°C° 0.1 mm 3 m/s 758 mmHg 75%
    20:00 +29°C° 0.1 mm 3 m/s 759 mmHg 79%
    21:00 +28°C° 0.1 mm 3 m/s 759 mmHg 80%
    22:00 +28°C° 0.1 mm 3 m/s 759 mmHg 80%
    23:00 +28°C° 0.1 mm 3 m/s 760 mmHg 81%

    26 Aprilie, Vineri

    Timp Temperatura Precipitaţii Vânt Presiune Umiditate
    00:00 +28°C° 0 mm 3 m/s 759 mmHg 82%
    01:00 +28°C° 0 mm 2 m/s 759 mmHg 82%
    02:00 +28°C° 0 mm 2 m/s 758 mmHg 82%
    03:00 +27°C° 0 mm 2 m/s 758 mmHg 83%
    04:00 +27°C° 0 mm 1 m/s 759 mmHg 83%
    05:00 +27°C° 0 mm 1 m/s 759 mmHg 83%
    06:00 +28°C° 0 mm 1 m/s 759 mmHg 78%
    07:00 +29°C° 0 mm 1 m/s 759 mmHg 72%
    08:00 +28°C° 0 mm 0 m/s 760 mmHg 67%
    09:00 +32°C° 0 mm 1 m/s 760 mmHg 58%
    10:00 +35°C° 0 mm 1 m/s 760 mmHg 49%
    11:00 +38°C° 0 mm 2 m/s 759 mmHg 40%
    12:00 +39°C° 0 mm 2 m/s 759 mmHg 38%
    13:00 +39°C° 0 mm 3 m/s 758 mmHg 36%
    14:00 +41°C° 0 mm 4 m/s 757 mmHg 35%
    15:00 +40°C° 0 mm 4 m/s 757 mmHg 38%
    16:00 +38°C° 0 mm 4 m/s 756 mmHg 41%
    17:00 +37°C° 0 mm 4 m/s 756 mmHg 43%
    18:00 +35°C° 0 mm 4 m/s 756 mmHg 48%
    19:00 +34°C° 0 mm 4 m/s 757 mmHg 52%
    20:00 +33°C° 0 mm 4 m/s 758 mmHg 57%
    21:00 +32°C° 0 mm 4 m/s 758 mmHg 58%
    22:00 +31°C° 0 mm 3 m/s 758 mmHg 60%
    23:00 +30°C° 0 mm 3 m/s 758 mmHg 61%
    Arată mai mult